Ruston, LA

9:05 PM CST on January 20, 2017 (GMT -0600)
Ruston Regional

Weather History for KRSN - March, 2013

Change the Weather History Date:

Tuesday, March 5, 2013

  Actual Average Record
Temperature  
Mean Temperature 54 °F -  
Max Temperature 65 °F 64 °F 81 °F (1938)
Min Temperature 42 °F 39 °F 21 °F (1971)
Degree Days  
Heating Degree Days 11    
Growing Degree Days 4 (Base 50)    
Moisture  
Dew Point 36 °F    
Average Humidity 48    
Maximum Humidity 94    
Minimum Humidity 24    
Precipitation  
Precipitation 0.00 in - - ()
Sea Level Pressure  
Sea Level Pressure 30.10 in    
Wind  
Wind Speed 11 mph (WNW)    
Max Wind Speed 18 mph    
Max Gust Speed 30 mph    
Visibility 10 miles    
Events Rain    
Averages and records for this station are not official NWS values.
T = Trace of Precipitation, MM = Missing Value Source: NWS Daily Summary

Daily Weather History Graph

Daily Weather History Graph

Search for Another Location

Airport or City:

Trip Planner

Search our weather history database for the weather conditions in past years. The results will help you decide how hot, cold, wet, or windy it might be!

Date:

Astronomy

Mar. 05, 2013 Rise Set
Actual Time 6:32 AM CST 6:11 PM CST
Civil Twilight 6:08 AM CST 6:35 PM CST
Nautical Twilight 5:39 AM CST 7:04 PM CST
Astronomical Twilight 5:11 AM CST 7:32 PM CST
Moon 1:31 AM CST (3/5) 12:05 PM CST (3/5)
Length of Visible Light 12h 27m
Length of Day
11h 38m
Last Quarter, 40% of the Moon is Illuminated
Mar 5
Last Quarter
Mar 11
New
Mar 19
First Quarter
Mar 27
Full
Apr 2
Last Quarter

Hourly Weather History & Observations

Time (CST) Temp. Windchill Dew Point Humidity Pressure Visibility Wind Dir Wind Speed Gust Speed Precip Events Conditions
12:35 AM 65.3 °F - 57.2 °F 75% 29.83 in 10.0 mi SSW 15.0 mph - N/A   Overcast
12:55 AM 65.3 °F - 57.4 °F 76% 29.83 in 10.0 mi SSW 11.5 mph 23.0 mph N/A   Overcast
1:15 AM 65.3 °F - 57.6 °F 76% 29.83 in 10.0 mi SSW 12.7 mph 18.4 mph N/A   Overcast
1:35 AM 65.7 °F - 57.6 °F 75% 29.83 in 10.0 mi SSW 16.1 mph 20.7 mph N/A   Mostly Cloudy
1:55 AM 65.8 °F - 57.7 °F 75% 29.82 in 10.0 mi SSW 11.5 mph 25.3 mph N/A   Overcast
2:15 AM 65.5 °F - 57.9 °F 77% 29.81 in 10.0 mi SSW 15.0 mph 24.2 mph N/A   Overcast
2:35 AM 65.5 °F - 57.7 °F 76% 29.81 in 10.0 mi SSW 12.7 mph 21.9 mph N/A   Mostly Cloudy
2:55 AM 65.5 °F - 58.1 °F 77% 29.81 in 10.0 mi SSW 11.5 mph 20.7 mph N/A   Mostly Cloudy
3:15 AM 65.5 °F - 58.1 °F 77% 29.83 in 10.0 mi SSW 10.4 mph - N/A   Overcast
3:35 AM 65.8 °F - 58.1 °F 76% 29.88 in 10.0 mi West 9.2 mph 17.3 mph N/A   Overcast
3:55 AM 65.8 °F - 58.1 °F 76% 29.89 in 10.0 mi SW 6.9 mph 16.1 mph N/A   Overcast
4:15 AM 65.5 °F - 58.5 °F 78% 29.91 in 10.0 mi WSW 5.8 mph - N/A   Overcast
4:35 AM 65.3 °F - 58.6 °F 79% 29.91 in 10.0 mi SW 4.6 mph - N/A   Overcast
4:55 AM 64.8 °F - 59.0 °F 82% 29.91 in 10.0 mi WSW 5.8 mph - N/A   Overcast
5:15 AM 64.4 °F - 59.2 °F 83% 29.92 in 10.0 mi SW 3.5 mph - N/A Rain Light Rain
5:35 AM 63.9 °F - 60.6 °F 89% 29.93 in 10.0 mi SW 5.8 mph - N/A Rain Rain
5:55 AM 63.5 °F - 61.9 °F 94% 29.93 in 10.0 mi SW 4.6 mph - N/A   Overcast
6:35 AM 63.7 °F - 61.2 °F 91% 29.94 in 10.0 mi WSW 5.8 mph - N/A   Overcast
6:55 AM 63.9 °F - 61.0 °F 90% 29.95 in 10.0 mi West 6.9 mph - N/A   Overcast
7:15 AM 59.9 °F - 49.3 °F 68% 29.98 in 10.0 mi NW 9.2 mph 24.2 mph N/A   Overcast
7:35 AM 57.4 °F - 44.6 °F 62% 30.02 in 10.0 mi NNW 13.8 mph 26.5 mph N/A   Overcast
7:55 AM 55.9 °F - 41.9 °F 59% 30.04 in 10.0 mi NW 15.0 mph 29.9 mph N/A   Overcast
8:35 AM 54.9 °F - 39.7 °F 57% 30.08 in 10.0 mi NNW 12.7 mph 19.6 mph N/A   Mostly Cloudy
8:55 AM 55.9 °F - 38.7 °F 52% 30.08 in 10.0 mi NNW 15.0 mph 20.7 mph N/A   Scattered Clouds
9:15 AM 55.6 °F - 37.6 °F 51% 30.10 in 10.0 mi NNW 12.7 mph 24.2 mph N/A   Mostly Cloudy
9:35 AM 56.3 °F - 37.4 °F 49% 30.11 in 10.0 mi NNW 13.8 mph 21.9 mph N/A   Scattered Clouds
9:55 AM 57.0 °F - 35.6 °F 45% 30.12 in 10.0 mi NW 15.0 mph 29.9 mph N/A   Clear
10:15 AM 57.0 °F - 35.4 °F 44% 30.13 in 10.0 mi North 18.4 mph 25.3 mph N/A   Clear
10:35 AM 57.6 °F - 35.8 °F 44% 30.14 in 10.0 mi NNW 13.8 mph 21.9 mph N/A   Clear
10:55 AM 57.6 °F - 34.9 °F 43% 30.15 in 10.0 mi NNW 13.8 mph 23.0 mph N/A   Clear
11:15 AM 59.2 °F - 35.8 °F 42% 30.15 in 10.0 mi NW 9.2 mph 17.3 mph N/A   Clear
11:35 AM 59.7 °F - 34.3 °F 39% 30.14 in 10.0 mi WNW 12.7 mph 18.4 mph N/A   Clear
11:55 AM 60.6 °F - 32.9 °F 35% 30.15 in 10.0 mi NNW 18.4 mph 25.3 mph N/A   Clear
12:15 PM 60.3 °F - 30.2 °F 32% 30.15 in 10.0 mi NW 18.4 mph 24.2 mph N/A   Clear
12:35 PM 61.0 °F - 30.7 °F 32% 30.15 in 10.0 mi NNW 12.7 mph 21.9 mph N/A   Clear
12:55 PM 61.9 °F - 29.5 °F 29% 30.15 in 10.0 mi NW 12.7 mph 19.6 mph N/A   Clear
1:15 PM 61.7 °F - 28.0 °F 28% 30.15 in 10.0 mi NNW 15.0 mph 27.6 mph N/A   Clear
1:35 PM 61.7 °F - 28.2 °F 28% 30.15 in 10.0 mi NW 11.5 mph 19.6 mph N/A   Clear
1:55 PM 61.7 °F - 27.7 °F 28% 30.15 in 10.0 mi NW 11.5 mph 19.6 mph N/A   Clear
2:15 PM 62.2 °F - 25.9 °F 25% 30.15 in 10.0 mi NW 11.5 mph 19.6 mph N/A   Clear
2:35 PM 61.9 °F - 27.9 °F 28% 30.16 in 10.0 mi WNW 13.8 mph 18.4 mph N/A   Clear
2:55 PM 61.3 °F - 26.4 °F 27% 30.16 in 10.0 mi NW 5.8 mph 18.4 mph N/A   Clear
3:15 PM 61.7 °F - 25.3 °F 25% 30.16 in 10.0 mi NNW 11.5 mph 24.2 mph N/A   Clear
3:35 PM 61.9 °F - 25.3 °F 25% 30.16 in 10.0 mi NW 12.7 mph 20.7 mph N/A   Clear
3:55 PM 61.7 °F - 25.0 °F 25% 30.17 in 10.0 mi NNW 12.7 mph 21.9 mph N/A   Clear
4:15 PM 61.5 °F - 23.9 °F 24% 30.17 in 10.0 mi NNW 12.7 mph 20.7 mph N/A   Clear
4:35 PM 61.0 °F - 23.2 °F 24% 30.18 in 10.0 mi NNW 8.1 mph 18.4 mph N/A   Clear
4:55 PM 60.3 °F - 22.8 °F 24% 30.19 in 10.0 mi NW 8.1 mph 20.7 mph N/A   Clear
5:15 PM 59.2 °F - 23.2 °F 25% 30.19 in 10.0 mi NW 5.8 mph - N/A   Clear
5:55 PM 56.7 °F - 22.3 °F 26% 30.20 in 10.0 mi NW 5.8 mph - N/A   Clear
6:15 PM 55.4 °F - 21.2 °F 26% 30.22 in 10.0 mi NW 6.9 mph - N/A   Clear
6:35 PM 54.5 °F - 19.2 °F 25% 30.23 in 10.0 mi NW 4.6 mph - N/A   Clear
6:55 PM 52.7 °F - 21.0 °F 29% 30.24 in 10.0 mi Calm Calm - N/A   Clear
7:15 PM 51.8 °F - 21.7 °F 31% 30.25 in 10.0 mi NW 3.5 mph - N/A   Clear
7:35 PM 51.3 °F - 21.6 °F 31% 30.25 in 10.0 mi NW 5.8 mph - N/A   Clear
7:55 PM 50.7 °F - 20.8 °F 31% 30.26 in 10.0 mi NW 8.1 mph - N/A   Clear
8:15 PM 50.0 °F - 20.7 °F 32% 30.26 in 10.0 mi NNW 5.8 mph - N/A   Clear
8:35 PM 49.1 °F - 20.3 °F 32% 30.27 in 10.0 mi NNW 4.6 mph - N/A   Clear
8:55 PM 48.4 °F - 20.7 °F 33% 30.29 in 10.0 mi NNW 3.5 mph - N/A   Clear
9:15 PM 47.3 °F - 21.0 °F 35% 30.30 in 10.0 mi NW 3.5 mph - N/A   Clear
9:35 PM 47.1 °F - 20.7 °F 35% 30.31 in 10.0 mi NW 3.5 mph - N/A   Clear
9:55 PM 46.6 °F - 21.0 °F 36% 30.31 in 10.0 mi NW 4.6 mph - N/A   Clear
10:15 PM 45.9 °F 43.6 °F 21.2 °F 38% 30.32 in 10.0 mi NNW 4.6 mph - N/A   Clear
10:35 PM 45.0 °F 41.8 °F 21.4 °F 39% 30.32 in 10.0 mi NW 5.8 mph - N/A   Clear
10:55 PM 44.6 °F 42.2 °F 21.7 °F 40% 30.33 in 10.0 mi NNW 4.6 mph - N/A   Clear
11:15 PM 43.9 °F 40.5 °F 22.1 °F 42% 30.32 in 10.0 mi NNW 5.8 mph - N/A   Clear
11:35 PM 43.3 °F 40.7 °F 21.7 °F 42% 30.32 in 10.0 mi NW 4.6 mph - N/A   Clear
11:55 PM 42.4 °F 38.8 °F 22.6 °F 46% 30.32 in 10.0 mi NNW 5.8 mph - N/A   Clear